| time (UTC) | temp F | wind direction | speed MPH | gust MPH | rain 1hr in | rain 24hr in | rain mn in | humidity % | barometer mb |
| 20260905202118 | 82 | 76 | 0.0 | 1.0 | 0.00 | 0.00 | 0.00 | 65 | 1010.5 |
| 20260905201116 | 83 | 84 | 0.0 | 3.0 | 0.00 | 0.00 | 0.00 | 61 | 1010.4 |
| 20260905200119 | 83 | 169 | 1.0 | 4.0 | 0.00 | 0.00 | 0.00 | 64 | 1010.5 |
| 20260905195115 | 84 | 222 | 1.0 | 4.0 | 0.00 | 0.00 | 0.00 | 59 | 1010.4 |
| 20260905193116 | 83 | 304 | 0.0 | 1.0 | 0.00 | 0.00 | 0.00 | 66 | 1010.5 |
| 20260905192114 | 82 | 151 | 0.0 | 3.0 | 0.00 | 0.00 | 0.00 | 64 | 1010.6 |
| 20260905191115 | 83 | 244 | 0.0 | 4.0 | 0.00 | 0.00 | 0.00 | 61 | 1010.5 |
| 20260905185114 | 81 | 75 | 0.0 | 1.0 | 0.00 | 0.00 | 0.00 | 61 | 1010.6 |
| 20260905184116 | 82 | 53 | 0.0 | 3.0 | 0.00 | 0.00 | 0.00 | 67 | 1010.7 |
| 20260905183115 | 83 | 59 | 0.0 | 5.0 | 0.00 | 0.00 | 0.00 | 63 | 1010.7 |
| 20260905182114 | 83 | 63 | 0.0 | 2.0 | 0.00 | 0.00 | 0.00 | 61 | 1010.9 |
| 20260905181114 | 81 | 120 | 0.0 | 2.0 | 0.00 | 0.00 | 0.00 | 63 | 1010.9 |
| 20260905180114 | 79 | 122 | 0.0 | 4.0 | 0.00 | 0.00 | 0.00 | 68 | 1011.0 |
| 20260905175113 | 80 | 205 | 0.0 | 6.0 | 0.00 | 0.00 | 0.00 | 64 | 1011.0 |
| 20260905173113 | 82 | 95 | 0.0 | 2.0 | 0.00 | 0.00 | 0.00 | 65 | 1010.9 |
| 20260905172110 | 80 | 240 | 0.0 | 2.0 | 0.00 | 0.00 | 0.00 | 67 | 1011.0 |
| 20260905171110 | 80 | 37 | 1.0 | 6.0 | 0.00 | 0.00 | 0.00 | 66 | 1010.9 |
| 20260905170109 | 79 | 97 | 0.0 | 1.0 | 0.00 | 0.00 | 0.00 | 68 | 1011.2 |
| 20260905165107 | 79 | 70 | 0.0 | 5.0 | 0.00 | 0.00 | 0.00 | 67 | 1011.2 |
| 20260905164106 | 81 | 92 | 0.0 | 3.0 | 0.00 | 0.00 | 0.00 | 67 | 1011.2 |
| 20260905163104 | 81 | 193 | 0.0 | 3.0 | 0.00 | 0.00 | 0.00 | 65 | 1011.3 |
| 20260905162106 | 81 | 215 | 0.0 | 3.0 | 0.00 | 0.00 | 0.00 | 66 | 1011.3 |
| 20260905161106 | 80 | 123 | 0.0 | 3.0 | 0.00 | 0.00 | 0.00 | 68 | 1011.4 |
| 20260905160105 | 80 | 178 | 1.0 | 7.0 | 0.00 | 0.00 | 0.00 | 68 | 1011.5 |
| 20260905155105 | 80 | 214 | 1.0 | 6.0 | 0.00 | 0.00 | 0.00 | 70 | 1011.5 |
| 20260905154105 | 80 | 77 | 1.0 | 4.0 | 0.00 | 0.00 | 0.00 | 68 | 1011.4 |
| 20260905153105 | 79 | 83 | 1.0 | 6.0 | 0.00 | 0.00 | 0.00 | 69 | 1011.2 |
| 20260905152105 | 79 | 131 | 1.0 | 4.0 | 0.00 | 0.00 | 0.00 | 70 | 1011.2 |
| 20260905151105 | 78 | 101 | 1.0 | 6.0 | 0.00 | 0.00 | 0.00 | 69 | 1011.2 |
| 20260905145104 | 77 | 290 | 0.0 | 4.0 | 0.00 | 0.00 | 0.00 | 73 | 1011.4 |
| 20260905144106 | 78 | 106 | 1.0 | 5.0 | 0.00 | 0.00 | 0.00 | 69 | 1011.3 |
| 20260905143104 | 78 | 295 | 1.0 | 7.0 | 0.00 | 0.00 | 0.00 | 71 | 1011.3 |
| 20260905142106 | 78 | 108 | 1.0 | 4.0 | 0.00 | 0.00 | 0.00 | 71 | 1011.2 |
| 20260905141102 | 78 | 52 | 0.0 | 4.0 | 0.00 | 0.00 | 0.00 | 71 | 1011.0 |
| 20260905140103 | 77 | 81 | 0.0 | 7.0 | 0.00 | 0.00 | 0.00 | 73 | 1011.0 |
| 20260905135104 | 77 | 198 | 1.0 | 5.0 | 0.00 | 0.00 | 0.00 | 75 | 1011.0 |
| 20260905134103 | 77 | 278 | 0.0 | 3.0 | 0.00 | 0.00 | 0.00 | 74 | 1010.9 |
| 20260905133101 | 77 | 127 | 0.0 | 2.0 | 0.00 | 0.00 | 0.00 | 76 | 1010.8 |
| 20260905132102 | 76 | 207 | 0.0 | 5.0 | 0.00 | 0.00 | 0.00 | 76 | 1010.9 |
| 20260905131101 | 75 | 155 | 0.0 | 2.0 | 0.00 | 0.00 | 0.00 | 78 | 1011.0 |
| 20260905125100 | 74 | 148 | 1.0 | 4.0 | 0.00 | 0.00 | 0.00 | 79 | 1011.6 |
| 20260905124100 | 74 | 155 | 1.0 | 5.0 | 0.00 | 0.00 | 0.00 | 79 | 1011.7 |
| 20260905123101 | 73 | 295 | 0.0 | 5.0 | 0.00 | 0.00 | 0.00 | 79 | 1011.7 |
| 20260905122059 | 73 | 153 | 0.0 | 2.0 | 0.00 | 0.00 | 0.00 | 80 | 1011.5 |
| 20260905121057 | 72 | 124 | 0.0 | 5.0 | 0.00 | 0.00 | 0.00 | 81 | 1011.7 |
| 20260905120054 | 70 | 194 | 0.0 | 3.0 | 0.00 | 0.00 | 0.00 | 83 | 1011.6 |
| 20260905115053 | 70 | 153 | 0.0 | 0.0 | 0.00 | 0.00 | 0.00 | 85 | 1011.7 |
| 20260905113050 | 69 | 77 | 0.0 | 1.0 | 0.00 | 0.00 | 0.00 | 85 | 1011.5 |
| 20260905112050 | 70 | 76 | 0.0 | 1.0 | 0.00 | 0.00 | 0.00 | 84 | 1011.3 |
| 20260905111051 | 70 | 129 | 0.0 | 0.0 | 0.00 | 0.00 | 0.00 | 85 | 1011.3 |
| 20260905110049 | 69 | 129 | 0.0 | 0.0 | 0.00 | 0.00 | 0.00 | 84 | 1011.2 |
| 20260905105050 | 69 | 129 | 0.0 | 1.0 | 0.00 | 0.00 | 0.00 | 84 | 1011.2 |
| 20260905104049 | 69 | 136 | 0.0 | 1.0 | 0.00 | 0.00 | 0.00 | 84 | 1010.8 |
| 20260905103049 | 69 | 129 | 0.0 | 0.0 | 0.00 | 0.00 | 0.00 | 83 | 1010.7 |
| 20260905102050 | 69 | 129 | 0.0 | 2.0 | 0.00 | 0.00 | 0.00 | 83 | 1010.8 |
| 20260905101052 | 69 | 143 | 0.0 | 2.0 | 0.00 | 0.00 | 0.00 | 85 | 1010.7 |
| 20260905100050 | 69 | 269 | 0.0 | 0.0 | 0.00 | 0.00 | 0.00 | 85 | 1010.6 |
| 20260905093049 | 70 | 189 | 0.0 | 1.0 | 0.00 | 0.00 | 0.00 | 84 | 1010.2 |
| 20260905092049 | 70 | 94 | 0.0 | 0.0 | 0.00 | 0.00 | 0.00 | 86 | 1010.2 |
| 20260905091046 | 70 | 94 | 0.0 | 0.0 | 0.00 | 0.00 | 0.00 | 85 | 1010.1 |
| 20260905090046 | 70 | 94 | 0.0 | 0.0 | 0.00 | 0.00 | 0.00 | 85 | 1010.2 |
| 20260905085046 | 70 | 94 | 0.0 | 1.0 | 0.00 | 0.00 | 0.00 | 85 | 1010.2 |
| 20260905084045 | 70 | 210 | 0.0 | 0.0 | 0.00 | 0.00 | 0.00 | 85 | 1010.1 |
| 20260905083045 | 71 | 210 | 0.0 | 0.0 | 0.00 | 0.00 | 0.00 | 86 | 1010.1 |
| 20260905082045 | 71 | 210 | 0.0 | 1.0 | 0.00 | 0.00 | 0.00 | 85 | 1009.9 |
| 20260905081045 | 71 | 210 | 0.0 | 1.0 | 0.00 | 0.00 | 0.00 | 85 | 1010.2 |
| 20260905075045 | 70 | 98 | 0.0 | 0.0 | 0.00 | 0.00 | 0.00 | 88 | 1010.2 |
| 20260905074046 | 71 | 98 | 0.0 | 0.0 | 0.00 | 0.00 | 0.00 | 88 | 1010.2 |
| 20260905073040 | 70 | 98 | 0.0 | 0.0 | 0.00 | 0.00 | 0.00 | 88 | 1010.0 |
| 20260905072039 | 70 | 219 | 0.0 | 0.0 | 0.00 | 0.00 | 0.00 | 88 | 1010.2 |
| 20260905071039 | 70 | 219 | 0.0 | 1.0 | 0.00 | 0.00 | 0.00 | 88 | 1010.2 |
| 20260905070040 | 70 | 213 | 0.0 | 0.0 | 0.00 | 0.00 | 0.00 | 91 | 1010.1 |
| 20260905063038 | 70 | 212 | 0.0 | 0.0 | 0.00 | 0.00 | 0.00 | 90 | 1010.4 |
| 20260905062040 | 71 | 212 | 0.0 | 0.0 | 0.00 | 0.00 | 0.00 | 92 | 1010.6 |
| 20260905061042 | 71 | 212 | 0.0 | 0.0 | 0.00 | 0.00 | 0.00 | 90 | 1010.6 |
| 20260905060037 | 71 | 212 | 0.0 | 1.0 | 0.00 | 0.00 | 0.00 | 91 | 1010.5 |
| 20260905055038 | 70 | 212 | 0.0 | 1.0 | 0.00 | 0.01 | 0.00 | 92 | 1010.6 |
| 20260905054039 | 70 | 256 | 0.0 | 0.0 | 0.00 | 0.02 | 0.00 | 91 | 1010.6 |
| 20260905053037 | 70 | 256 | 0.0 | 0.0 | 0.00 | 0.02 | 0.00 | 91 | 1010.7 |
| 20260905052037 | 70 | 256 | 0.0 | 0.0 | 0.00 | 0.02 | 0.00 | 90 | 1010.9 |
| 20260905051036 | 70 | 256 | 0.0 | 0.0 | 0.00 | 0.02 | 0.00 | 92 | 1011.0 |
| 20260905050038 | 70 | 256 | 0.0 | 0.0 | 0.00 | 0.02 | 0.00 | 92 | 1011.0 |
| 20260905045037 | 71 | 256 | 0.0 | 0.0 | 0.00 | 0.02 | 0.00 | 93 | 1011.1 |
| 20260905044035 | 71 | 256 | 0.0 | 0.0 | 0.00 | 0.02 | 0.00 | 92 | 1011.0 |
| 20260905042036 | 71 | 256 | 0.0 | 0.0 | 0.00 | 0.02 | 0.00 | 92 | 1011.2 |
| 20260905040033 | 71 | 256 | 0.0 | 0.0 | 0.00 | 0.02 | 0.00 | 91 | 1011.3 |
| 20260905033034 | 70 | 256 | 0.0 | 0.0 | 0.00 | 0.02 | 0.02 | 94 | 1011.2 |
| 20260905032033 | 70 | 256 | 0.0 | 0.0 | 0.00 | 0.02 | 0.02 | 95 | 1011.2 |
| 20260905030035 | 70 | 256 | 0.0 | 0.0 | 0.00 | 0.02 | 0.02 | 95 | 1011.2 |
| 20260905025029 | 70 | 256 | 0.0 | 0.0 | 0.00 | 0.02 | 0.02 | 95 | 1011.1 |
| 20260905024027 | 70 | 256 | 0.0 | 0.0 | 0.00 | 0.02 | 0.02 | 95 | 1011.0 |
| 20260905023025 | 70 | 256 | 0.0 | 0.0 | 0.00 | 0.02 | 0.02 | 95 | 1011.2 |
| 20260905022023 | 70 | 256 | 0.0 | 0.0 | 0.00 | 0.02 | 0.02 | 95 | 1011.2 |
| 20260905021023 | 70 | 256 | 0.0 | 0.0 | 0.00 | 0.02 | 0.02 | 95 | 1011.2 |
| 20260905020023 | 70 | 256 | 0.0 | 0.0 | 0.00 | 0.02 | 0.02 | 95 | 1011.3 |
| 20260905015023 | 70 | 256 | 0.0 | 0.0 | 0.00 | 0.02 | 0.02 | 95 | 1011.3 |
| 20260905014024 | 70 | 256 | 0.0 | 0.0 | 0.00 | 0.02 | 0.02 | 95 | 1011.3 |
| 20260905013024 | 70 | 256 | 0.0 | 0.0 | 0.00 | 0.02 | 0.02 | 95 | 1011.4 |
| 20260905012023 | 71 | 256 | 0.0 | 0.0 | 0.00 | 0.02 | 0.02 | 95 | 1011.4 |
| 20260905011023 | 71 | 256 | 0.0 | 0.0 | 0.00 | 0.02 | 0.02 | 94 | 1011.2 |
| 20260905005025 | 71 | 256 | 0.0 | 0.0 | 0.00 | 0.02 | 0.02 | 93 | 1011.2 |
| 20260905003026 | 72 | 256 | 0.0 | 0.0 | 0.00 | 0.02 | 0.02 | 90 | 1010.9 |
| 20260905002024 | 73 | 256 | 0.0 | 0.0 | 0.00 | 0.02 | 0.02 | 89 | 1010.9 |
| 20260905001023 | 73 | 256 | 0.0 | 0.0 | 0.00 | 0.02 | 0.02 | 88 | 1010.8 |
| 20260905000018 | 74 | 256 | 0.0 | 0.0 | 0.00 | 0.02 | 0.02 | 88 | 1010.9 |
| 20260904235017 | 75 | 256 | 0.0 | 0.0 | 0.00 | 0.02 | 0.02 | 87 | 1010.8 |
| 20260904234017 | 76 | 256 | 0.0 | 0.0 | 0.00 | 0.02 | 0.02 | 87 | 1010.5 |
| 20260904231017 | 78 | 256 | 0.0 | 0.0 | 0.00 | 0.02 | 0.02 | 81 | 1010.6 |
| 20260904230018 | 79 | 256 | 0.0 | 0.0 | 0.00 | 0.02 | 0.02 | 80 | 1010.9 |
| 20260904224019 | 80 | 256 | 0.0 | 0.0 | 0.00 | 0.02 | 0.02 | 76 | 1010.8 |
| 20260904223012 | 81 | 256 | 0.0 | 0.0 | 0.00 | 0.02 | 0.02 | 76 | 1010.9 |
| 20260904222011 | 82 | 256 | 0.0 | 1.0 | 0.00 | 0.02 | 0.02 | 72 | 1010.8 |
| 20260904221009 | 83 | 255 | 0.0 | 1.0 | 0.00 | 0.02 | 0.02 | 70 | 1010.7 |
| 20260904220009 | 85 | 203 | 0.0 | 1.0 | 0.00 | 0.02 | 0.02 | 68 | 1010.6 |
| 20260904215010 | 87 | 128 | 0.0 | 3.0 | 0.00 | 0.02 | 0.02 | 66 | 1010.8 |
| 20260904214008 | 87 | 225 | 0.0 | 1.0 | 0.00 | 0.02 | 0.02 | 65 | 1010.6 |
| 20260904213008 | 87 | 240 | 0.0 | 3.0 | 0.00 | 0.02 | 0.02 | 65 | 1010.5 |
| 20260904212006 | 87 | 108 | 0.0 | 3.0 | 0.00 | 0.02 | 0.02 | 65 | 1010.5 |
| 20260904210004 | 87 | 164 | 0.0 | 6.0 | 0.00 | 0.02 | 0.02 | 67 | 1010.4 |
| 20260904205004 | 87 | 211 | 1.0 | 3.0 | 0.00 | 0.02 | 0.02 | 69 | 1010.5 |
| 20260904204002 | 86 | 257 | 1.0 | 6.0 | 0.00 | 0.02 | 0.02 | 66 | 1010.8 |